Estación de Codegua
Ultimos registro cada 15 minutos 34
| N° | Estación | Fecha / Hora | Temperatura | Humedad | Lluvia | Velocidad | Dirección | Radiación | Presion |
| 34 | Codegua | 04-05-2026 08:15 | 10,8 | 82,9 | 0 | 0 | 164 | 8,1 | 957,6 |
| 33 | Codegua | 04-05-2026 08:00 | 11 | 83,5 | 0 | 0 | 164 | 5,6 | 957,5 |
| 32 | Codegua | 04-05-2026 07:45 | 11,1 | 81,8 | 0 | 0 | 164 | 1,9 | 957,5 |
| 31 | Codegua | 04-05-2026 07:30 | 10,6 | 83,7 | 0 | 0 | 164 | 0,6 | 957,5 |
| 30 | Codegua | 04-05-2026 07:15 | 10,5 | 84 | 0 | 0 | 164 | 0,6 | 957,3 |
| 29 | Codegua | 04-05-2026 07:00 | 10,6 | 83,2 | 0 | 0 | 164 | 0,6 | 957,1 |
| 28 | Codegua | 04-05-2026 06:45 | 10,8 | 80,7 | 0 | 0 | 164 | 0,6 | 957,2 |
| 27 | Codegua | 04-05-2026 06:30 | 10,8 | 79,6 | 0 | 0 | 164 | 0,6 | 957,2 |
| 26 | Codegua | 04-05-2026 06:15 | 11 | 79,5 | 0 | 0 | 164 | 0,6 | 957,1 |
| 25 | Codegua | 04-05-2026 06:00 | 10,8 | 78,5 | 0 | 0 | 164 | 0,6 | 957 |
| 24 | Codegua | 04-05-2026 05:45 | 10,9 | 77,4 | 0 | 0 | 164 | 0,6 | 957,2 |
| 23 | Codegua | 04-05-2026 05:30 | 11,1 | 75,1 | 0 | 0 | 164 | 0,6 | 957,2 |
| 22 | Codegua | 04-05-2026 05:15 | 11,1 | 77,3 | 0 | 0 | 164 | 0,6 | 957,2 |
| 21 | Codegua | 04-05-2026 05:00 | 11,4 | 74,4 | 0 | 0 | 164 | 0,6 | 957,3 |
| 20 | Codegua | 04-05-2026 04:45 | 11,8 | 74,5 | 0 | 0 | 168 | 0,6 | 957,2 |
| 19 | Codegua | 04-05-2026 04:30 | 11 | 79,5 | 0 | 0 | 170 | 0,6 | 956,9 |
| 18 | Codegua | 04-05-2026 04:15 | 11,4 | 76,7 | 0 | 0 | 170 | 0,6 | 956,9 |
| 17 | Codegua | 04-05-2026 04:00 | 11,4 | 75,4 | 0 | 0 | 170 | 0,6 | 957 |
| 16 | Codegua | 04-05-2026 03:45 | 11 | 78,6 | 0 | 0 | 170 | 0,6 | 956,9 |
| 15 | Codegua | 04-05-2026 03:30 | 10,9 | 79,1 | 0 | 0 | 170 | 0,6 | 957,2 |
| 14 | Codegua | 04-05-2026 03:15 | 10,8 | 79,2 | 0 | 0 | 170 | 0,6 | 957,3 |
| 13 | Codegua | 04-05-2026 03:00 | 11,1 | 79,2 | 0 | 0 | 170 | 0,6 | 957,7 |
| 12 | Codegua | 04-05-2026 02:45 | 11,4 | 76,3 | 0 | 0 | 170 | 0,6 | 957,9 |
| 11 | Codegua | 04-05-2026 02:30 | 11,3 | 75,1 | 0 | 0 | 170 | 0,6 | 957,8 |
| 10 | Codegua | 04-05-2026 02:15 | 11,3 | 78,9 | 0 | 0 | 170 | 0,6 | 957,8 |
| 9 | Codegua | 04-05-2026 02:00 | 11,4 | 77,2 | 0 | 0 | 170 | 0,6 | 958 |
| 8 | Codegua | 04-05-2026 01:45 | 11,4 | 78,3 | 0 | 0 | 170 | 0,6 | 958,1 |
| 7 | Codegua | 04-05-2026 01:30 | 11,5 | 77,3 | 0 | 0 | 170 | 0,6 | 958,4 |
| 6 | Codegua | 04-05-2026 01:15 | 11,7 | 75,2 | 0 | 0 | 170 | 0,6 | 958,6 |
| 5 | Codegua | 04-05-2026 01:00 | 12,1 | 75 | 0 | 0 | 170 | 0,6 | 959 |
| 4 | Codegua | 04-05-2026 00:45 | 11,8 | 73,9 | 0 | 0 | 170 | 0,6 | 959,2 |
| 3 | Codegua | 04-05-2026 00:30 | 11,9 | 77 | 0 | 0 | 170 | 0,6 | 959,2 |
| 2 | Codegua | 04-05-2026 00:15 | 12 | 76 | 0 | 0 | 170 | 0,6 | 958,9 |
| 1 | Codegua | 04-05-2026 00:00 | 11,8 | 76 | 0 | 0 | 170 | 0,6 | 959,1 |